Date,TemperatureHighF,TemperatureAvgF,TemperatureLowF,DewpointHighF,DewpointAvgF,DewpointLowF,HumidityHigh,HumidityAvg,HumidityLow,PressureMaxIn,PressureMinIn,WindSpeedMaxMPH,WindSpeedAvgMPH,GustSpeedMaxMPH,PrecipitationSumIn
2013-3-1,60,53,48,39,37,34,65,54,42,30.01,29.90,9,1,12,0.00
2013-3-2,54,47,41,37,33,30,81,61,42,30.03,29.92,16,2,20,0.00
2013-3-3,47,42,38,33,30,27,80,64,48,30.14,29.99,13,1,15,0.00
2013-3-4,63,49,36,45,31,22,75,54,28,30.23,30.10,9,1,11,0.00
2013-3-5,74,61,47,58,47,39,81,62,31,30.18,29.88,14,4,17,0.00
2013-3-6,66,53,45,61,37,28,88,57,32,30.14,29.85,16,4,19,0.01
2013-3-7,64,49,38,44,37,31,86,63,37,30.24,30.13,8,1,10,0.00
2013-3-8,68,54,44,51,44,38,93,73,34,30.24,30.15,15,2,15,0.00
2013-3-9,66,56,48,52,48,46,93,76,51,30.28,30.18,13,2,15,0.00
2013-3-10,74,63,53,58,54,51,95,75,50,30.23,30.12,14,2,16,0.00
2013-3-11,76,67,57,61,58,55,93,74,53,30.13,29.88,10,1,14,0.01
2013-3-12,69,65,57,66,59,48,97,82,54,30.01,29.82,8,1,10,0.06
2013-3-13,70,60,50,48,37,31,72,46,24,30.19,30.01,9,1,13,0.00
2013-3-14,61,52,45,39,32,26,77,47,29,30.31,30.16,9,1,13,0.00
2013-3-15,72,57,43,48,38,26,82,52,29,30.29,30.11,6,1,10,0.00
2013-3-16,78,65,52,53,49,42,87,59,34,30.16,29.98,11,2,14,0.00
2013-3-17,77,66,53,56,50,44,91,59,32,30.12,29.97,10,1,12,0.00
2013-3-18,79,70,62,65,60,54,87,74,56,30.05,29.84,9,1,10,0.00
2013-3-19,80,70,62,65,60,57,89,70,47,30.01,29.87,10,1,21,0.00
2013-3-20,66,61,53,60,53,47,93,75,56,30.02,29.84,15,2,17,0.19
2013-3-21,68,56,46,52,35,23,94,51,19,29.96,29.85,9,1,12,0.00
2013-3-22,64,57,50,50,39,31,77,53,40,30.06,29.93,11,3,16,0.00
2013-3-23,68,61,56,66,59,50,99,92,77,30.00,29.78,14,1,23,1.80
2013-3-24,83,71,62,71,66,61,99,86,56,29.81,29.51,13,3,21,0.16
2013-3-25,69,60,50,62,38,25,85,48,24,30.03,29.60,16,3,17,0.00
2013-3-26,56,49,41,31,28,24,56,45,33,30.25,30.03,14,2,21,0.00
2013-3-27,60,49,38,35,31,28,69,50,33,30.31,30.20,6,1,10,0.00
2013-3-28,67,55,44,43,36,25,76,51,21,30.31,30.20,10,1,11,0.00
2013-3-29,72,59,47,48,42,33,86,58,25,30.34,30.19,9,1,12,0.00
2013-3-30,76,63,48,55,46,39,86,57,28,30.27,30.09,10,1,12,0.00
2013-3-31,79,69,59,58,53,45,77,58,45,30.13,29.95,10,3,13,0.00